Showing default

LYNK TOWER 6, 59123

Orbit data source: Space-Track

LYNK TOWER 6, 59123 is a payload satellite owned by Lynk (US) in SSO that was launched on Mon, 04 Mar 2024 UTC via an FALCON 9 launch vehicle from the Air Force Western Test Range (AFWTR). Payload-class satellites include a variety of spacecraft equipped with specific instruments for various scientific and technological missions. These include communications satellites like Starlink; space stations such as the ISS; scientific satellites like the Hubble; Earth observation satellites from companies like Planet Labs, Umbra, and HawkEye 360; GPS; miniature CubeSats for education and research; and military/defense satellites.

Loading next visibility...
Identifier
59123, 2024-043AB
Orbit
SSO
Country
Flag of USUS
Related business
Manufacturer
Lynk
Mission
Operational Commercial Communications
Bus & Motor
LYNK SHANNON, Unknown motor
Mass
~85 kg wet, ~85 kg dry
Launch date (UTC)
2024-03-04 (3 years ago)
Launch vehicle
FALCON 9
Launch site
Air Force Western Test Range (AFWTR)
Object type
Payload
Rocket body
Debris
Shape & HBR
Box, 1.0 m
Radar Cross Section
0.650 m², Medium (>0.1 m² and < 1m²)

Expand to show TLE details & history
Last TLE update: 4 hours ago

TLE from 4 hours ago
0 LYNK TOWER 6
1 59123U 24043AB  26251.64180684  .00004913  00000-0  16196-3 0  9999
2 59123  97.5707  30.3357 0008746 315.0058  45.0473 15.31910026139807
Epoch: 2026-09-08T15:24Z
TLE epoch observation values (Epoch: 2026-09-08T15:24:12.110Z)
Latitude
-0.00013°
Longitude
171.57996°
Altitude
468.986 km
Speed
7.634 km/s
True Right ascension
02h 01m 20s
True Declination
0° 00' 00"
Sunlit
Object was in full shadow at epoch
Visualization orbit readout
Latitude
Unknown
Longitude
Unknown
Altitude
Unknown
Speed
Unknown
Apparent Right ascension
Unknown
Apparent Declination
Unknown
Sunlit
N/A
Visualization observer readout
Local Sidereal Time
11:27:50
Azimuth
Unknown
Elevation
Unknown
Doppler factor
Unknown
Orbital elements
Apogee altitude
473.058 km
Perigee altitude
461.084 km
Semi-major axis
6,845.208 km
Eccentricity
0.00087
Inclination
97.5707°
RAAN
30.3357°
Arg. of periapsis
315.0058°
True anomaly
45.11828°
Mean anomaly
45.0473°
Eccentric anomaly
45.08278°
Mean motion
3.83233 °/min
Orbital period
93.94 mins
BSTAR
0.00016196
Loading maneuver chart data...
Computing Atmospheric mass density...
Loading historical data...
Loading historical data...
Loading historical data...
Loading historical data...
Loading historical data...
Loading historical data...
Loading historical data...

Documentation

Showing up to 5 results
|